Location: Newark
(38.1091°N, 103.8677°W)
Time: 15:21:49
(UTC+00:00)

OTV 5 (USA 277) - Visible Passes

Search period start: 19 October 2019 00:00
Search period end: 29 October 2019 00:00
Orbit: 310 x 324 km, 54.5° (Epoch: 17 October)

Date Brightness Start Highest point End Pass type
(mag) Time Alt. Az. Time Alt. Az. Time Alt. Az.
19 Oct ? 12:25:04 10° NW 12:27:50 84° SW 12:30:32 10° SE visible
20 Oct ? 11:08:43 18° ENE 11:08:43 18° ENE 11:10:04 10° E visible
20 Oct ? 12:39:58 10° WNW 12:42:16 24° SW 12:44:32 10° S visible
21 Oct ? 11:23:30 34° E 11:23:30 34° E 11:25:19 10° ESE visible
22 Oct ? 11:38:25 24° S 11:38:25 24° S 11:39:46 10° SSE visible
27 Oct ? 01:42:42 10° SSW 01:43:54 23° SSW 01:43:54 23° SSW visible
28 Oct ? 01:57:20 10° WSW 01:58:38 23° W 01:58:38 23° W visible
